Tiempo atmosférico en la estación meteorológica de Banyalbufar, Illes Balears (60 m.)



Fecha
DESCASC
Temp. máxima en grados centígrados (hora)
DESCASC
Temp. mínima en grados centígrados (hora)
DESCASC
Temp. media en grados centígrados
DESCASC
Racha de viento máxima en m/sg (hora)
DESCASC
Velocidad máxima media en intervalos de 10 minutos(hora)
DESCASC
Precipitaciones diarias en mm
DESCASC
Precipitaciones de 00:00 a 06:00 en mm
DESCASC
Precipitaciones de 06:00 a 12:00 en mm
DESCASC
Precipitaciones de 12:00 a 18:00 en mm
DESCASC
Precipitaciones de 18:00 a 24:00 en mm
DESCASC
20-05-2018 20.3 (15:40) 14.4 (03:10) 17.3 3.61 (03:40) 2.5 (13:00) 1.8 0 0 1.8 0
19-05-2018 19.3 (18:40) 12.9 (04:50) 16.1 6.94 (12:40) 4.17 (12:20) 0 0 0 0 0
18-05-2018 18.4 (19:50) 14.2 (00:00) 16.3 8.61 (15:50) 5.28 (16:40) 0 0 0 0 0
17-05-2018 20.3 (15:50) 13.9 (00:00) 17.1 6.94 (14:40) 4.17 (10:10) 0 0 0 0 0
16-05-2018 19.7 (15:50) 12.7 (00:00) 16.2 5 (11:40) 3.06 (05:30) 0 0 0 0 0
15-05-2018 18.5 (19:00) 13.4 (00:00) 15.9 6.39 (02:20) 3.89 (19:20) 0 0 0 0 0
14-05-2018 17.9 (18:20) 13.6 (00:00) 15.8 14.72 (09:40) 7.78 (08:20) 0 0 0 0 0
13-05-2018 18.6 (00:00) 13 (00:00) 15.8 16.94 (05:10) 11.39 (05:20) 5.8 5.8 0 0 0
12-05-2018 22.3 (15:20) 13.9 (00:00) 18.1 10.83 (17:10) 5.83 (23:59) 0 0 0 0 0
11-05-2018 22.4 (19:10) 13.6 (06:50) 18 4.72 (14:50) 2.78 (16:20) 0 0 0 0 0
10-05-2018 19.5 (18:00) 14.5 (00:00) 17 3.61 (15:10) 2.22 (16:30) 0 0 0 0 0
09-05-2018 20.9 (19:20) 14.4 (00:00) 17.6 8.33 (11:30) 5.28 (11:30) 0 0 0 0 0
08-05-2018 17.9 (13:40) 12.9 (00:00) 15.4 9.72 (13:40) 5 (14:00) 0 0 0 0 0
07-05-2018 17.4 (16:30) 13.3 (00:00) 15.3 5.83 (16:10) 3.06 (16:10) 0 0 0 0 0
06-05-2018 18.3 (13:40) 13.6 (00:00) 15.9 7.5 (18:20) 4.72 (17:20) 0 0 0 0 0
05-05-2018 15.7 (20:00) 12.2 (00:00) 13.9 5.56 (02:00) 3.33 (06:30) 8 0.2 3 4.8 0
04-05-2018 15.1 (02:20) 12.3 (00:00) 13.7 8.61 (04:40) 5 (04:40) 2.8 0 0.2 2.4 0.2
03-05-2018 20.1 (18:50) 14 (00:00) 17.1 8.33 (00:40) 4.72 (04:00) 0 0 0 0 0
02-05-2018 17.5 (18:20) 12.7 (00:00) 15.1 8.89 (21:40) 5.28 (21:00) 0 0 0 0 0
01-05-2018 14.8 (00:00) 11 (07:10) 12.9 11.67 (15:50) 7.78 (13:10) 13.6 0 13.2 0.4 0
30-04-2018 18.3 (18:40) 14.1 (00:00) 16.2 14.44 (00:10) 5 (00:10) 0 0 0 0 0
29-04-2018 20.5 (09:00) 16.4 (00:00) 18.4 20.28 (00:20) 9.44 (00:20) 0.8 0 0.8 0 0
28-04-2018 22.6 (19:10) 14 (00:00) 18.3 16.67 (23:40) 10.83 (23:10) 0 0 0 0 0
27-04-2018 25.1 (16:20) 13 (00:00) 19.1 10.83 (13:40) 6.67 (13:20) 0 0 0 0 0
26-04-2018 18.7 (08:10) 15.3 (00:00) 17 17.78 (12:40) 9.44 (11:30) 0 0 0 0 0
25-04-2018 25.4 (15:10) 17.3 (00:00) 21.3 10 (14:00) 4.72 (16:40) 0 0 0 0 0
24-04-2018 23.8 (10:00) 16.5 (00:00) 20.1 8.61 (17:30) 4.72 (04:10) 0 0 0 0 0
23-04-2018 22.2 (18:40) 15.5 (00:00) 18.9 6.11 (07:10) 3.61 (07:00) 0 0 0 0 0
22-04-2018 21.1 (14:30) 13.9 (00:00) 17.5 5 (14:30) 3.06 (14:50) 0 0 0 0 0

Gráficas

Temp. máximas Temp. mínimas Temp. medias Precipitaciones Rachas de viento máximas Velocidades máximas media en intervalos de 10 minutos

Datos horarios

Fecha y hora oficial Temperatura (ºC) Velocidad del viento (km/h) Dirección del viento Racha (km/h) Dirección de racha Precipitación (mm) Presión (hPa) Tendencia (hPa) Humedad (%)
2018-05-21 23:00:00 17.6 4 Sur 6 Sur 0 -- -- 94
2018-05-21 22:00:00 18.2 5 Norte 7 Norte 0 -- -- 93
2018-05-21 21:00:00 18.6 3 Norte 8 Norte 0 -- -- 90
2018-05-21 20:00:00 19.5 5 Norte 9 Norte 0 -- -- 86
2018-05-21 19:00:00 20.5 6 Norte 13 Noroeste 0 -- -- 81
2018-05-21 18:00:00 20.7 6 Noroeste 16 Noroeste 0 -- -- 79
2018-05-21 17:00:00 20.5 5 Norte 10 Norte 0 -- -- 78
2018-05-21 16:00:00 20.3 6 Norte 10 Norte 0 -- -- 81
2018-05-21 15:00:00 19.9 6 Norte 13 Noroeste 0 -- -- 83
2018-05-21 14:00:00 19.8 7 Noroeste 13 Noroeste 0 -- -- 87
2018-05-21 13:00:00 18.7 5 Noroeste 9 Noroeste 0 -- -- 89
2018-05-21 12:00:00 18.4 4 Noroeste 8 Noroeste 0 -- -- 93
2018-05-21 11:00:00 18.7 5 Noroeste 9 Noroeste 0 -- -- 93
2018-05-21 10:00:00 17.8 2 Noroeste 5 Noroeste 0 -- -- 97
2018-05-21 09:00:00 17.5 0 Calma 8 Sur 0 -- -- 99
2018-05-21 08:00:00 16.4 4 Sur 9 Sur 0 -- -- 100
2018-05-21 07:00:00 15.7 7 Sur 9 Sur 0 -- -- 100
2018-05-21 06:00:00 15.6 6 Sur 11 Sur 0 -- -- 100
2018-05-21 05:00:00 15.7 6 Sur 8 Sur 0 -- -- 100
2018-05-21 04:00:00 15.9 8 Sur 9 Sur 0 -- -- 100
2018-05-21 03:00:00 16 7 Sur 10 Sur 0 -- -- 100
2018-05-21 02:00:00 16.2 6 Sur 8 Sur 0 -- -- 100
2018-05-21 01:00:00 16.9 6 Sur 8 Sur 0 -- -- 100
2018-05-21 00:00:00 17 4 Sudeste 8 Sur 0 -- -- 100
2018-05-20 23:00:00 17.3 5 Sudeste 7 Sudeste 0 -- -- 99
2018-05-20 22:00:00 17.4 3 Sur 9 Sudoeste 0 -- -- 98
2018-05-20 21:00:00 18 2 Sudoeste 5 Oeste 0 -- -- 95
2018-05-20 20:00:00 18.6 3 Oeste 6 Oeste 0 -- -- 93
2018-05-20 19:00:00 19.7 3 Norte 5 Norte 0 -- -- 94
2018-05-20 18:00:00 19 0 Calma 6 Nordeste 0.2 -- -- 92
2018-05-20 17:00:00 18.1 5 Sudeste 10 Sudeste 1.6 -- -- 93
2018-05-20 16:00:00 19.7 8 Norte 11 Norte 0 -- -- 86
2018-05-20 15:00:00 18.8 4 Norte 9 Norte 0 -- -- 89
2018-05-20 14:00:00 19.5 6 Norte 10 Norte 0 -- -- 87
2018-05-20 13:00:00 18.9 9 Norte 12 Norte 0 -- -- 84
2018-05-20 12:00:00 18.7 5 Norte 9 Norte 0 -- -- 89
2018-05-20 11:00:00 18.4 4 Norte 10 Norte 0 -- -- 88
2018-05-20 10:00:00 18.6 6 Norte 13 Nordeste 0 -- -- 85
2018-05-20 09:00:00 18.6 3 Nordeste 8 Nordeste 0 -- -- 84
2018-05-20 08:00:00 17.7 3 Este 10 Sudeste 0 -- -- 89
2018-05-20 07:00:00 15 6 Sur 11 Sudeste 0 -- -- 89
2018-05-20 06:00:00 15.3 6 Sudeste 11 Sudeste 0 -- -- 91
2018-05-20 05:00:00 15.5 7 Sudeste 9 Sudeste 0 -- -- 88
2018-05-20 04:00:00 14.8 5 Sur 13 Sur 0 -- -- 88
2018-05-20 03:00:00 14.6 7 Sur 10 Sur 0 -- -- 90
2018-05-20 02:00:00 15.1 6 Sur 10 Sur 0 -- -- 92
2018-05-20 01:00:00 15.6 6 Sur 11 Sur 0 -- -- 94
2018-05-20 00:00:00 15.4 6 Sur 10 Sur 0 -- -- 95
2018-05-19 23:00:00 15.8 6 Sur 12 Sur 0 -- -- 94
2018-05-19 22:00:00 16.6 6 Sur 8 Sur 0 -- -- 93
2018-05-19 21:00:00 17.6 4 Nordeste 14 Nordeste 0 -- -- 91
2018-05-19 20:00:00 18.2 7 Norte 17 Norte 0 -- -- 90
2018-05-19 19:00:00 19.2 10 Norte 21 Norte 0 -- -- 84
2018-05-19 18:00:00 19.1 12 Norte 20 Norte 0 -- -- 85
2018-05-19 17:00:00 18.1 8 Norte 17 Norte 0 -- -- 86
2018-05-19 16:00:00 18.4 10 Norte 19 Norte 0 -- -- 84
2018-05-19 15:00:00 18.8 12 Norte 19 Norte 0 -- -- 85
2018-05-19 14:00:00 18.5 12 Norte 19 Norte 0 -- -- 88
2018-05-19 13:00:00 18 13 Norte 25 Norte 0 -- -- 89
2018-05-19 12:00:00 18 13 Norte 20 Norte 0 -- -- 87
2018-05-19 11:00:00 17.4 8 Norte 13 Norte 0 -- -- 88
2018-05-19 10:00:00 18 6 Norte 16 Nordeste 0 -- -- 87
2018-05-19 09:00:00 17.9 4 Nordeste 11 Nordeste 0 -- -- 82
2018-05-19 08:00:00 16.8 2 Este 10 Sur 0 -- -- 89
2018-05-19 07:00:00 12.9 6 Sur 13 Sur 0 -- -- 93
2018-05-19 06:00:00 13.1 5 Sur 10 Sur 0 -- -- 95
2018-05-19 05:00:00 12.9 9 Sur 12 Sur 0 -- -- 95
2018-05-19 04:00:00 13.3 8 Sur 12 Sur 0 -- -- 97
2018-05-19 03:00:00 14.2 6 Sur 10 Sur 0 -- -- 97
2018-05-19 02:00:00 14.1 5 Sur 12 Sur 0 -- -- 96
2018-05-19 01:00:00 13.9 9 Sur 11 Sur 0 -- -- 95
2018-05-19 00:00:00 14.2 11 Sur 15 Sur 0 -- -- 96
2018-05-18 23:00:00 14.6 8 Sur 10 Sur 0 -- -- 95
2018-05-18 22:00:00 15.7 4 Sur 18 Nordeste 0 -- -- 92
2018-05-18 21:00:00 17.1 7 Nordeste 16 Nordeste 0 -- -- 87
2018-05-18 20:00:00 18.4 5 Nordeste 20 Nordeste 0 -- -- 83
2018-05-18 19:00:00 17.3 14 Nordeste 30 Nordeste 0 -- -- 86
2018-05-18 18:00:00 17.7 12 Nordeste 30 Nordeste 0 -- -- 86
2018-05-18 17:00:00 17.8 17 Nordeste 29 Nordeste 0 -- -- 89
2018-05-18 16:00:00 17.4 17 Nordeste 31 Nordeste 0 -- -- 90
2018-05-18 15:00:00 17.4 16 Nordeste 23 Nordeste 0 -- -- 91
2018-05-18 14:00:00 17.2 14 Nordeste 21 Nordeste 0 -- -- 87
2018-05-18 13:00:00 17.4 12 Nordeste 19 Nordeste 0 -- -- 88
2018-05-18 12:00:00 17 11 Nordeste 17 Nordeste 0 -- -- 87
2018-05-18 11:00:00 16.8 12 Nordeste 19 Nordeste 0 -- -- 86
2018-05-18 10:00:00 17.8 11 Nordeste 20 Nordeste 0 -- -- 83
2018-05-18 09:00:00 17.4 9 Nordeste 18 Nordeste 0 -- -- 84
2018-05-18 08:00:00 16.8 6 Este 15 Este 0 -- -- 87
2018-05-18 07:00:00 16.4 6 Este 13 Este 0 -- -- 87
2018-05-18 06:00:00 16.1 5 Este 19 Este 0 -- -- 91
2018-05-18 05:00:00 16.1 7 Este 16 Este 0 -- -- 93
2018-05-18 04:00:00 16.2 8 Este 24 Este 0 -- -- 94
2018-05-18 03:00:00 16.1 7 Sudeste 12 Sudeste 0 -- -- 91
2018-05-18 02:00:00 15 3 Sur 9 Sudeste 0 -- -- 91
2018-05-18 01:00:00 15.1 5 Sur 10 Sur 0 -- -- 89
2018-05-18 00:00:00 15.2 6 Sur 10 Sur 0 -- -- 88
2018-05-17 23:00:00 15.7 6 Sur 10 Sur 0 -- -- 89
2018-05-17 22:00:00 16.1 7 Sur 9 Sur 0 -- -- 85
2018-05-17 21:00:00 17.9 5 Nordeste 11 Oeste 0 -- -- 79
2018-05-17 20:00:00 19.6 4 Oeste 11 Oeste 0 -- -- 67
2018-05-17 19:00:00 20 7 Noroeste 12 Oeste 0 -- -- 71
2018-05-17 18:00:00 19.8 8 Norte 24 Nordeste 0 -- -- 77
2018-05-17 17:00:00 20.1 5 Norte 13 Nordeste 0 -- -- 72
2018-05-17 16:00:00 19.7 4 Norte 20 Norte 0 -- -- 72
2018-05-17 15:00:00 19.3 13 Norte 25 Norte 0 -- -- 76
2018-05-17 14:00:00 18.7 14 Norte 19 Nordeste 0 -- -- 77
2018-05-17 13:00:00 19 11 Norte 18 Norte 0 -- -- 69
2018-05-17 12:00:00 18.9 9 Norte 20 Nordeste 0 -- -- 75
2018-05-17 11:00:00 18.2 13 Nordeste 24 Nordeste 0 -- -- 81
2018-05-17 10:00:00 18 14 Nordeste 24 Nordeste 0 -- -- 77
2018-05-17 09:00:00 18.2 6 Nordeste 12 Nordeste 0 -- -- 67
2018-05-17 08:00:00 17.7 3 Sudeste 10 Este 0 -- -- 70
2018-05-17 07:00:00 15.2 6 Sudeste 14 Sudeste 0 -- -- 77
2018-05-17 06:00:00 14.4 6 Sudeste 13 Sudeste 0 -- -- 82
2018-05-17 05:00:00 14.2 4 Sur 11 Sur 0 -- -- 83
2018-05-17 04:00:00 14.3 8 Sur 14 Sur 0 -- -- 80
2018-05-17 03:00:00 14.5 9 Sur 12 Sur 0 -- -- 78
2018-05-17 02:00:00 14.7 8 Sur 12 Sur 0 -- -- 78
2018-05-17 01:00:00 15.2 5 Sur 10 Sur 0 -- -- 77
2018-05-17 00:00:00 15.7 7 Sur 11 Sudoeste 0 -- -- 73
2018-05-16 23:00:00 15.8 9 Sur 12 Sur 0 -- -- 72
2018-05-16 22:00:00 16.9 6 Sur 11 Sudeste 0 -- -- 71
2018-05-16 21:00:00 18 0 Calma 5 Noroeste 0 -- -- 73
2018-05-16 20:00:00 18.9 4 Nordeste 8 Norte 0 -- -- 71
2018-05-16 19:00:00 19.4 5 Norte 10 Norte 0 -- -- 68
2018-05-16 18:00:00 19.2 5 Norte 10 Norte 0 -- -- 68
2018-05-16 17:00:00 19.6 5 Norte 10 Norte 0 -- -- 69
2018-05-16 16:00:00 19.6 6 Noroeste 10 Norte 0 -- -- 68
2018-05-16 15:00:00 18.8 5 Norte 10 Norte 0 -- -- 68
2018-05-16 14:00:00 19.4 7 Norte 11 Norte 0 -- -- 64
2018-05-16 13:00:00 18.9 5 Norte 13 Noroeste 0 -- -- 57
2018-05-16 12:00:00 18.8 8 Noroeste 18 Noroeste 0 -- -- 59
2018-05-16 11:00:00 18.3 9 Oeste 17 Oeste 0 -- -- 58
2018-05-16 10:00:00 18.4 8 Oeste 12 Oeste 0 -- -- 51
2018-05-16 09:00:00 18.3 4 Oeste 9 Sur 0 -- -- 58
2018-05-16 08:00:00 14.9 4 Sur 13 Sur 0 -- -- 67
2018-05-16 07:00:00 12.9 9 Sur 13 Sur 0 -- -- 69
2018-05-16 06:00:00 12.7 9 Sur 13 Sudoeste 0 -- -- 73
2018-05-16 05:00:00 13 7 Sur 13 Sur 0 -- -- 71
2018-05-16 04:00:00 12.9 9 Sur 12 Sur 0 -- -- 71
2018-05-16 03:00:00 13.1 10 Sur 13 Sur 0 -- -- 68
2018-05-16 02:00:00 13.4 6 Sur 12 Sur 0 -- -- 64
2018-05-16 01:00:00 13.9 6 Sur 12 Sur 0 -- -- 61
2018-05-16 00:00:00 14.2 5 Sur 13 Sur 0 -- -- 58
2018-05-15 23:00:00 14.4 8 Sur 14 Sur 0 -- -- 56
2018-05-15 22:00:00 15.1 10 Sur 20 Sudoeste 0 -- -- 54
2018-05-15 21:00:00 17.7 8 Sudoeste 19 Oeste 0 -- -- 43
2018-05-15 20:00:00 18.5 13 Oeste 20 Oeste 0 -- -- 59
2018-05-15 19:00:00 18.5 11 Oeste 21 Oeste 0 -- -- 55
2018-05-15 18:00:00 18.1 8 Oeste 14 Oeste 0 -- -- 65
2018-05-15 17:00:00 17.4 7 Norte 10 Norte 0 -- -- 67
2018-05-15 16:00:00 17 6 Norte 13 Norte 0 -- -- 68
2018-05-15 15:00:00 17.4 6 Norte 12 Norte 0 -- -- 70
2018-05-15 14:00:00 17.3 7 Norte 15 Noroeste 0 -- -- 69
2018-05-15 13:00:00 16.7 9 Norte 19 Noroeste 0 -- -- 69
2018-05-15 12:00:00 16.7 6 Norte 17 Norte 0 -- -- 73
2018-05-15 11:00:00 16.5 8 Norte 12 Noroeste 0 -- -- 77
2018-05-15 10:00:00 16.3 9 Norte 14 Noroeste 0 -- -- 84
2018-05-15 09:00:00 15.8 9 Noroeste 13 Noroeste 0 -- -- 85
2018-05-15 08:00:00 15.5 6 Noroeste 12 Norte 0 -- -- 83
2018-05-15 07:00:00 15.1 11 Norte 18 Noroeste 0 -- -- 85
2018-05-15 06:00:00 15.1 7 Noroeste 15 Norte 0 -- -- 84
2018-05-15 05:00:00 14.8 7 Sudoeste 21 Oeste 0 -- -- 82
2018-05-15 04:00:00 15.6 8 Sudoeste 23 Sudoeste 0 -- -- 79
2018-05-15 03:00:00 14.6 12 Sur 23 Sur 0 -- -- 79
2018-05-15 02:00:00 14.5 13 Sudoeste 19 Sudoeste 0 -- -- 74
2018-05-15 01:00:00 13.5 10 Sur 15 Sur 0 -- -- 71
2018-05-15 00:00:00 13.6 9 Sur 16 Sudoeste 0 -- -- 67
2018-05-14 23:00:00 14.5 12 Sur 23 Sudoeste 0 -- -- 64
2018-05-14 22:00:00 13.8 5 Sur 11 Sur 0 -- -- 66
2018-05-14 21:00:00 14.3 7 Sur 14 Oeste 0 -- -- 65
2018-05-14 20:00:00 16.8 8 Oeste 17 Oeste 0 -- -- 58
2018-05-14 19:00:00 16.1 8 Oeste 15 Oeste 0 -- -- 56
2018-05-14 18:00:00 17.8 6 Norte 13 Noroeste 0 -- -- 51
2018-05-14 17:00:00 17.8 6 Noroeste 14 Noroeste 0 -- -- 51
2018-05-14 16:00:00 17.3 11 Norte 15 Norte 0 -- -- 55
2018-05-14 15:00:00 16.6 11 Norte 24 Norte 0 -- -- 54
2018-05-14 14:00:00 15.7 13 Noroeste 24 Noroeste 0 -- -- 62
2018-05-14 13:00:00 16 9 Noroeste 30 Noroeste 0 -- -- 62
2018-05-14 12:00:00 15.2 21 Norte 38 Norte 0 -- -- 67
2018-05-14 11:00:00 15.3 22 Norte 36 Norte 0 -- -- 65
2018-05-14 10:00:00 14.8 19 Norte 53 Noroeste 0 -- -- 69
2018-05-14 09:00:00 14.1 22 Norte 41 Norte 0 -- -- 65
2018-05-14 08:00:00 14.7 21 Norte 35 Norte 0 -- -- 64
2018-05-14 07:00:00 15.1 21 Norte 39 Noroeste 0 -- -- 64
2018-05-14 06:00:00 15.6 18 Noroeste 33 Noroeste 0 -- -- 68
2018-05-14 05:00:00 15.8 20 Noroeste 39 Noroeste 0 -- -- 76
2018-05-14 04:00:00 15.8 17 Oeste 37 Oeste 0 -- -- 77
2018-05-14 03:00:00 15 12 Sudoeste 27 Sudoeste 0 -- -- 64
2018-05-14 02:00:00 14.8 12 Sudoeste 25 Sudoeste 0 -- -- 70
2018-05-14 01:00:00 14.5 11 Sudoeste 18 Sur 0 -- -- 54
2018-05-11 20:00:00 -- -- -- -- -- -- -- -- --
2018-05-11 19:00:00 22.1 4 Noroeste 8 Norte 0 -- -- 61
2018-05-11 18:00:00 21.5 5 Noroeste 10 Norte 0 -- -- 68
2018-05-11 17:00:00 20.1 8 Norte 15 Norte 0 -- -- 79
2018-05-11 16:00:00 20.6 8 Nordeste 14 Nordeste 0 -- -- 73
2018-05-11 15:00:00 20.1 6 Norte 17 Nordeste 0 -- -- 72
2018-05-11 14:00:00 20.4 8 Norte 14 Norte 0 -- -- 73
2018-05-11 13:00:00 19.2 5 Norte 11 Norte 0 -- -- 76
2018-05-11 12:00:00 18.5 4 Norte 8 Norte 0 -- -- 77
2018-05-11 11:00:00 18 3 Norte 8 Norte 0 -- -- 81
2018-05-11 10:00:00 18.2 3 Norte 9 Sudoeste 0 -- -- 80
2018-05-11 09:00:00 17.9 5 Oeste 9 Oeste 0 -- -- 78
2018-05-11 08:00:00 16.5 2 Sur 9 Sur 0 -- -- 87
2018-05-11 07:00:00 13.6 8 Sur 14 Sur 0 -- -- 89
2018-05-11 06:00:00 13.8 8 Sur 12 Sur 0 -- -- 88
2018-05-11 05:00:00 14.2 7 Sur 12 Sudeste 0 -- -- 87
2018-05-11 04:00:00 14.5 6 Sur 12 Sudoeste 0 -- -- 90
2018-05-11 03:00:00 14.5 6 Sur 11 Sur 0 -- -- 97
2018-05-11 02:00:00 15 6 Sur 9 Sur 0 -- -- 100
2018-05-11 01:00:00 14.9 8 Sur 11 Sur 0 -- -- 99
2018-05-11 00:00:00 15.1 6 Sur 10 Sur 0 -- -- 97
2018-05-10 23:00:00 15.8 5 Sudoeste 9 Sudoeste 0 -- -- 94
2018-05-10 22:00:00 16.6 3 Sur 8 Sur 0 -- -- 90
2018-05-10 21:00:00 17.3 0 Calma 5 Norte 0 -- -- 85
2018-05-10 20:00:00 18 3 Norte 7 Noroeste 0 -- -- 83
2018-05-10 19:00:00 18.5 3 Noroeste 8 Noroeste 0 -- -- 81
2018-05-10 18:00:00 19.5 4 Norte 9 Norte 0 -- -- 79
2018-05-10 17:00:00 19.2 4 Norte 10 Norte 0 -- -- 79
2018-05-10 16:00:00 18.2 6 Norte 13 Norte 0 -- -- 83
2018-05-10 15:00:00 19.3 5 Noroeste 10 Norte 0 -- -- 84
2018-05-10 14:00:00 18.3 5 Noroeste 10 Norte 0 -- -- 88
2018-05-10 13:00:00 19 6 Norte 10 Noroeste 0 -- -- 85
2018-05-10 12:00:00 18.5 4 Norte 8 Noroeste 0 -- -- 90
2018-05-10 11:00:00 18 3 Norte 5 Noroeste 0 -- -- 93
2018-05-10 10:00:00 18.4 3 Norte 9 Norte 0 -- -- 92
2018-05-10 09:00:00 17.8 4 Norte 10 Norte 0 -- -- 93
2018-05-10 08:00:00 16.4 3 Sudeste 7 Sudeste 0 -- -- 99
2018-05-10 07:00:00 15.7 0 Calma 7 Este 0 -- -- 100
2018-05-10 06:00:00 15.4 3 Sur 8 Sudeste 0 -- -- 100
2018-05-10 05:00:00 14.5 6 Sudoeste 9 Sur 0 -- -- 99
2018-05-10 04:00:00 14.8 5 Sur 10 Sudoeste 0 -- -- 97
2018-05-10 03:00:00 15.1 4 Sudeste 9 Sur 0 -- -- 97
2018-05-10 02:00:00 15.3 4 Sudeste 10 Sur 0 -- -- 97
2018-05-10 01:00:00 15.2 7 Sur 10 Sur 0 -- -- 95
2018-05-10 00:00:00 15.6 5 Sur 9 Sur 0 -- -- 94
2018-05-09 23:00:00 16.7 3 Sudeste 15 Sudoeste 0 -- -- 92
2018-05-09 22:00:00 16.1 5 Sudeste 14 Nordeste 0 -- -- 95
2018-05-09 21:00:00 17.5 6 Nordeste 16 Nordeste 0 -- -- 91
2018-05-09 20:00:00 19.1 5 Nordeste 7 Norte 0 -- -- 83
2018-05-09 19:00:00 20.5 5 Oeste 13 Noroeste 0 -- -- 81
2018-05-09 18:00:00 19 4 Noroeste 20 Oeste 0 -- -- 89
2018-05-09 17:00:00 18.6 13 Oeste 27 Oeste 0 -- -- 85
2018-05-09 16:00:00 19 15 Oeste 29 Oeste 0 -- -- 89
2018-05-09 15:00:00 18.3 19 Oeste 28 Oeste 0 -- -- 91
2018-05-09 14:00:00 18 18 Oeste 24 Oeste 0 -- -- 94
2018-05-09 13:00:00 18.5 5 Noroeste 24 Sudoeste 0 -- -- 95
2018-05-09 12:00:00 17 13 Oeste 30 Oeste 0 -- -- 93
2018-05-09 11:00:00 17.9 13 Oeste 23 Oeste 0 -- -- 90
2018-05-09 10:00:00 18.2 3 Norte 9 Norte 0 -- -- 88
2018-05-09 09:00:00 18.5 0 Calma 7 Noroeste 0 -- -- 81
2018-05-09 08:00:00 17.7 3 Sur 10 Sur 0 -- -- 91
2018-05-09 07:00:00 15 5 Sudoeste 10 Sudoeste 0 -- -- 92
2018-05-09 06:00:00 15.1 5 Sur 12 Sudeste 0 -- -- 93
2018-05-09 05:00:00 15.4 9 Sudeste 13 Sudeste 0 -- -- 93
2018-05-09 04:00:00 15.7 0 Calma 13 Sudoeste 0 -- -- 92
2018-05-09 03:00:00 15.9 6 Sudoeste 14 Sudoeste 0 -- -- 99
2018-05-09 02:00:00 14.5 7 Sur 13 Sur 0 -- -- 100
2018-05-09 01:00:00 14.5 8 Sur 13 Sur 0 -- -- 99
2018-05-09 00:00:00 14.9 6 Sur 9 Sur 0 -- -- 98
2018-05-08 23:00:00 15.5 3 Nordeste 9 Sudeste 0 -- -- 96
2018-05-08 22:00:00 15.6 4 Este 14 Oeste 0 -- -- 97
2018-05-08 21:00:00 16.3 9 Oeste 21 Oeste 0 -- -- 95
2018-05-08 20:00:00 17.3 10 Oeste 21 Oeste 0 -- -- 92
2018-05-08 19:00:00 17.7 11 Oeste 21 Noroeste 0 -- -- 90
2018-05-08 18:00:00 17.4 11 Oeste 18 Noroeste 0 -- -- 92
2018-05-08 17:00:00 17.4 9 Noroeste 25 Oeste 0 -- -- 90
2018-05-08 16:00:00 17.6 14 Oeste 24 Oeste 0 -- -- 90
2018-05-08 15:00:00 17.3 15 Oeste 27 Oeste 0 -- -- 90
2018-05-08 14:00:00 17.8 18 Oeste 35 Oeste 0 -- -- 89
2018-05-08 13:00:00 17.8 8 Noroeste 14 Noroeste 0 -- -- 88
2018-05-08 12:00:00 17.4 4 Noroeste 8 Norte 0 -- -- 90
2018-05-08 11:00:00 16.7 4 Norte 9 Noroeste 0 -- -- 95
2018-05-08 10:00:00 15.7 2 Norte 9 Oeste 0 -- -- 100
2018-05-08 09:00:00 15.4 2 Noroeste 6 Oeste 0 -- -- 100
2018-05-08 08:00:00 14.7 2 Sur 8 Sur 0 -- -- 100
2018-05-08 07:00:00 13.5 4 Sur 10 Sur 0 -- -- 100
2018-05-08 06:00:00 13 6 Sur 11 Sur 0 -- -- 100
2018-05-08 05:00:00 13.4 6 Sudeste 11 Sudeste 0 -- -- 100
2018-05-08 04:00:00 13.6 6 Sur 10 Sur 0 -- -- 100
2018-05-08 03:00:00 13.1 6 Sur 10 Sur 0 -- -- 100
2018-05-08 02:00:00 13.8 3 Sur 9 Sur 0 -- -- 100
2018-05-08 01:00:00 13.9 4 Sur 9 Sur 0 -- -- 100
2018-05-08 00:00:00 13.8 3 Sur 6 Sur 0 -- -- 100
2018-05-07 23:00:00 13.9 5 Sur 9 Sur 0 -- -- 100
2018-05-07 22:00:00 14.6 4 Sur 11 Nordeste 0 -- -- 98
2018-05-07 21:00:00 15.4 5 Nordeste 14 Nordeste 0 -- -- 96
2018-05-07 20:00:00 15.9 6 Nordeste 11 Nordeste 0 -- -- 94
2018-05-07 19:00:00 16.3 2 Norte 9 Norte 0 -- -- 91
2018-05-07 18:00:00 16.6 6 Noroeste 14 Oeste 0 -- -- 89
2018-05-07 17:00:00 16.8 7 Noroeste 21 Oeste 0 -- -- 90
2018-05-07 16:00:00 17 9 Oeste 14 Oeste 0 -- -- 92
2018-05-07 15:00:00 16.5 5 Noroeste 14 Noroeste 0 -- -- 93
2018-05-07 14:00:00 17.1 8 Noroeste 16 Noroeste 0 -- -- 90
2018-05-07 13:00:00 16.7 6 Noroeste 13 Norte 0 -- -- 91
2018-05-07 12:00:00 16.9 6 Norte 14 Norte 0 -- -- 91
2018-05-07 11:00:00 16.2 4 Norte 8 Norte 0 -- -- 94
2018-05-07 10:00:00 15.7 6 Norte 13 Norte 0 -- -- 98
2018-05-07 09:00:00 15.6 3 Nordeste 11 Sudeste 0 -- -- 100
2018-05-07 08:00:00 14.7 4 Sudeste 9 Sur 0 -- -- 100
2018-05-07 07:00:00 14.4 6 Sur 10 Sur 0 -- -- 100
2018-05-07 06:00:00 14.1 5 Sur 10 Sur 0 -- -- 100
2018-05-07 05:00:00 14.1 6 Sur 9 Sur 0 -- -- 100
2018-05-07 04:00:00 14.3 2 Sudeste 8 Sur 0 -- -- 100
2018-05-07 03:00:00 13.6 4 Sur 8 Sur 0 -- -- 100
2018-05-07 02:00:00 13.5 5 Sur 8 Sur 0 -- -- 100
2018-05-07 01:00:00 13.9 5 Sur 8 Sur 0 -- -- 100
2018-05-07 00:00:00 14 3 Sur 6 Sur 0 -- -- 100
2018-05-06 23:00:00 14.4 3 Sur 6 Sur 0 -- -- 100
2018-05-06 22:00:00 14.6 3 Sur 7 Sur 0 -- -- 100
2018-05-06 21:00:00 15.6 6 Nordeste 17 Norte 0 -- -- 99
2018-05-06 20:00:00 16.5 10 Nordeste 26 Nordeste 0 -- -- 94
2018-05-06 19:00:00 16.9 15 Nordeste 27 Norte 0 -- -- 92
2018-05-06 18:00:00 17.8 12 Nordeste 26 Nordeste 0 -- -- 91
2018-05-06 17:00:00 18.1 14 Nordeste 22 Nordeste 0 -- -- 89
2018-05-06 16:00:00 17.4 14 Nordeste 23 Nordeste 0 -- -- 91
2018-05-06 15:00:00 18 11 Norte 20 Nordeste 0 -- -- 87
2018-05-06 14:00:00 17.9 8 Norte 13 Norte 0 -- -- 82
2018-05-06 13:00:00 17.2 5 Este 20 Norte 0 -- -- 88
2018-05-06 12:00:00 18.1 7 Nordeste 15 Norte 0 -- -- 84
2018-05-06 11:00:00 17.7 8 Este 13 Este 0 -- -- 87
2018-05-06 10:00:00 17.3 3 Norte 9 Nordeste 0 -- -- 88
2018-05-06 09:00:00 17.1 3 Nordeste 10 Sudeste 0 -- -- 95
2018-05-06 08:00:00 14.8 2 Este 11 Sudeste 0 -- -- 100
2018-05-06 07:00:00 14.2 8 Sudeste 15 Sudeste 0 -- -- 100
2018-05-06 06:00:00 14.2 9 Sudeste 14 Este 0 -- -- 100
2018-05-06 05:00:00 14.5 6 Sudeste 14 Sudeste 0 -- -- 100
2018-05-06 04:00:00 14.5 7 Sudeste 16 Sur 0 -- -- 100
2018-05-06 03:00:00 14.6 6 Este 12 Nordeste 0 -- -- 100
2018-05-06 02:00:00 14.5 4 Este 12 Sudeste 0 -- -- 100
2018-05-06 01:00:00 13.7 4 Sudeste 9 Sudeste 0 -- -- 100
2018-05-06 00:00:00 13.7 3 Sudeste 11 Este 0 -- -- 100
2018-05-05 23:00:00 13.8 3 Sudeste 12 Sudeste 0 -- -- 100
2018-05-05 22:00:00 13.7 6 Sudeste 12 Sudeste 0 -- -- 100
2018-05-05 21:00:00 14.2 3 Sudeste 13 Nordeste 0 -- -- 100
2018-05-05 20:00:00 15.7 4 Este 11 Sudeste 0 -- -- 100
2018-05-05 19:00:00 14.5 5 Este 9 Este 0 -- -- 100
2018-05-05 18:00:00 14.2 3 Este 16 Sudeste 0.2 -- -- 100
2018-05-05 17:00:00 14.2 6 Sudeste 13 Sudeste 0.2 -- -- 100
2018-05-05 16:00:00 14.2 3 Sur 9 Sudeste 0 -- -- 100
2018-05-05 15:00:00 14 2 Oeste 7 Sudoeste 0.4 -- -- 100
2018-05-05 14:00:00 13.8 0 Calma 5 Sur 2.2 -- -- 100
2018-05-05 13:00:00 13.7 2 Este 11 Sudeste 1.8 -- -- 100
2018-05-05 12:00:00 14 0 Calma 5 Norte 0.4 -- -- 100
2018-05-05 11:00:00 14.1 3 Oeste 8 Noroeste 0.2 -- -- 100
2018-05-05 10:00:00 14.2 3 Oeste 12 Sudoeste 1 -- -- 100
2018-05-05 09:00:00 14.1 2 Sudoeste 9 Sur 1 -- -- 100
2018-05-05 08:00:00 13.8 6 Sudoeste 11 Norte 0.4 -- -- 97
2018-05-05 07:00:00 13.8 4 Sudoeste 19 Sur 0 -- -- 98
2018-05-05 06:00:00 13.5 8 Sudoeste 13 Sur 0 -- -- 97
2018-05-05 05:00:00 13.8 7 Sudoeste 12 Sudoeste 0.2 -- -- 96
2018-05-05 04:00:00 13.9 6 Sudoeste 18 Sur 0 -- -- 95
2018-05-05 03:00:00 12.8 10 Sur 17 Sudoeste 0 -- -- 94
2018-05-05 02:00:00 13 10 Sur 20 Sudoeste 0 -- -- 92
2018-05-05 01:00:00 12.9 5 Sudeste 11 Sur 0 -- -- 93
2018-05-05 00:00:00 12.3 7 Sudoeste 10 Sur 0 -- -- 95
2018-05-04 23:00:00 12.7 6 Sur 11 Sur 0 -- -- 96
2018-05-04 22:00:00 12.3 9 Sur 13 Sur 0 -- -- 95
2018-05-04 21:00:00 12.5 6 Sur 10 Sur 0 -- -- 94
2018-05-04 20:00:00 12.6 5 Sur 13 Sudoeste 0.2 -- -- 92
2018-05-04 19:00:00 12.7 4 Sur 14 Sur 0 -- -- 92
2018-05-04 18:00:00 13.2 6 Sudoeste 13 Sudoeste 0 -- -- 93
2018-05-04 17:00:00 13 4 Sur 12 Sur 0.6 -- -- 95
2018-05-04 16:00:00 13.1 4 Sur 8 Sur 1.2 -- -- 95
2018-05-04 15:00:00 13.4 3 Nordeste 9 Norte 0.4 -- -- 92
2018-05-04 14:00:00 13.8 5 Norte 10 Norte 0.2 -- -- 92
2018-05-04 13:00:00 14.5 5 Norte 8 Noroeste 0 -- -- 90
2018-05-04 12:00:00 14.2 4 Norte 13 Norte 0 -- -- 91
2018-05-04 11:00:00 14.2 5 Nordeste 10 Nordeste 0.2 -- -- 91
2018-05-04 10:00:00 13.9 3 Nordeste 13 Norte 0 -- -- 85
2018-05-04 09:00:00 14.2 5 Norte 15 Norte 0 -- -- 82
2018-05-04 08:00:00 14.2 10 Norte 21 Norte 0 -- -- 80
2018-05-04 07:00:00 14.2 6 Noroeste 18 Norte 0 -- -- 79
2018-05-04 06:00:00 14.2 10 Noroeste 22 Noroeste 0 -- -- 77
2018-05-04 05:00:00 14.5 12 Noroeste 31 Norte 0 -- -- 76
2018-05-04 04:00:00 15 11 Sudoeste 20 Sur 0 -- -- 79
2018-05-04 03:00:00 14.9 11 Sudoeste 21 Sudoeste 0 -- -- 68
2018-05-04 02:00:00 14.8 14 Sudoeste 21 Sudoeste 0 -- -- 64
2018-05-04 01:00:00 14.2 6 Sur 13 Sudoeste 0 -- -- 72
2018-05-04 00:00:00 14.6 8 Sur 17 Sur 0 -- -- 72
2018-05-03 23:00:00 15.1 10 Sur 18 Sur 0 -- -- 68
2018-05-03 22:00:00 15.4 6 Sur 14 Sur 0 -- -- 66
2018-05-03 21:00:00 16.2 8 Sudeste 13 Sudeste 0 -- -- 62
2018-05-03 20:00:00 19 4 Sudeste 14 Sudoeste 0 -- -- 51
2018-05-03 19:00:00 19.8 5 Sudoeste 15 Oeste 0 -- -- 47
2018-05-03 18:00:00 19.1 9 Oeste 17 Oeste 0 -- -- 53
2018-05-03 17:00:00 18.5 6 Noroeste 14 Norte 0 -- -- 58
2018-05-03 16:00:00 17.6 9 Norte 17 Noroeste 0 -- -- 70
2018-05-03 15:00:00 18.2 5 Noroeste 12 Norte 0 -- -- 63
2018-05-03 14:00:00 17.7 6 Norte 19 Norte 0 -- -- 66
2018-05-03 13:00:00 17.6 12 Norte 23 Norte 0 -- -- 62
2018-05-03 12:00:00 17.1 8 Norte 15 Norte 0 -- -- 75
2018-05-03 11:00:00 16.2 8 Norte 13 Norte 0 -- -- 87
2018-05-03 10:00:00 16.2 4 Norte 12 Norte 0 -- -- 89
2018-05-03 09:00:00 15.4 7 Norte 16 Norte 0 -- -- 84
2018-05-03 08:00:00 15.4 5 Sudoeste 12 Sur 0 -- -- 81
2018-05-03 07:00:00 15 8 Oeste 19 Norte 0 -- -- 78
2018-05-03 06:00:00 15.5 12 Oeste 23 Oeste 0 -- -- 73
2018-05-03 05:00:00 15.4 12 Sudoeste 29 Sur 0 -- -- 67
2018-05-03 04:00:00 15.6 17 Sudoeste 30 Sur 0 -- -- 66
2018-05-03 03:00:00 16.2 12 Sudoeste 23 Sudoeste 0 -- -- 50
2018-05-03 02:00:00 15.8 12 Sudoeste 23 Sudoeste 0 -- -- 43
2018-05-03 01:00:00 16.3 15 Sudoeste 30 Sudoeste 0 -- -- 38
2018-05-03 00:00:00 16.2 14 Sudoeste 23 Sudoeste 0 -- -- 37
2018-05-02 23:00:00 16.1 15 Sudoeste 32 Sudoeste 0 -- -- 37
2018-05-02 22:00:00 16.1 17 Sudoeste 32 Sudoeste 0 -- -- 36
2018-05-02 21:00:00 15.8 19 Sudoeste 32 Sur 0 -- -- 41
2018-05-02 20:00:00 17.2 13 Sudoeste 29 Oeste 0 -- -- 39
2018-05-02 19:00:00 16.7 11 Oeste 22 Oeste 0 -- -- 60
2018-05-02 18:00:00 17 9 Oeste 24 Oeste 0 -- -- 58
2018-05-02 17:00:00 16.7 10 Oeste 18 Noroeste 0 -- -- 58
2018-05-02 16:00:00 16.5 9 Noroeste 18 Noroeste 0 -- -- 69
2018-05-02 15:00:00 16.6 8 Noroeste 19 Noroeste 0 -- -- 70
2018-05-02 14:00:00 16 9 Noroeste 22 Noroeste 0 -- -- 73
2018-05-02 13:00:00 15.5 10 Norte 21 Norte 0 -- -- 72
2018-05-02 12:00:00 14.9 14 Norte 26 Noroeste 0 -- -- 75
2018-05-02 11:00:00 15 10 Noroeste 26 Norte 0 -- -- 68
2018-05-02 10:00:00 14.3 13 Noroeste 27 Noroeste 0 -- -- 73
2018-05-02 09:00:00 13.6 14 Noroeste 31 Noroeste 0 -- -- 81
2018-05-02 08:00:00 13.3 16 Noroeste 32 Oeste 0 -- -- 79
2018-05-02 07:00:00 13.1 13 Noroeste 28 Noroeste 0 -- -- 78
2018-05-02 06:00:00 13 9 Noroeste 21 Noroeste 0 -- -- 76
2018-05-02 05:00:00 13.1 12 Noroeste 23 Norte 0 -- -- 76
2018-05-02 04:00:00 13.1 13 Norte 19 Noroeste 0 -- -- 77
2018-05-02 03:00:00 12.9 9 Norte 18 Noroeste 0 -- -- 76
2018-05-02 02:00:00 12.8 12 Norte 22 Norte 0 -- -- 77
2018-05-02 01:00:00 13 13 Norte 23 Norte 0 -- -- 77
2018-05-02 00:00:00 13.2 14 Norte 24 Norte 0 -- -- 78
2018-05-01 23:00:00 12.7 4 Este 22 Nordeste 0 -- -- 76
2018-05-01 22:00:00 13.2 16 Nordeste 27 Norte 0 -- -- 73
2018-05-01 21:00:00 13 8 Este 31 Nordeste 0 -- -- 73
2018-05-01 20:00:00 13.9 18 Nordeste 35 Nordeste 0 -- -- 73
2018-05-01 19:00:00 14 22 Nordeste 38 Nordeste 0 -- -- 77
2018-05-01 18:00:00 13.9 22 Nordeste 37 Nordeste 0 -- -- 77
2018-05-01 17:00:00 13.3 22 Nordeste 41 Nordeste 0 -- -- 79
2018-05-01 16:00:00 12.7 26 Nordeste 42 Nordeste 0 -- -- 84
2018-05-01 15:00:00 14.4 13 Norte 23 Norte 0.2 -- -- 82
2018-05-01 14:00:00 13.3 10 Nordeste 40 Norte 0 -- -- 90
2018-05-01 13:00:00 12.7 20 Norte 33 Norte 0.2 -- -- 86
2018-05-01 12:00:00 13.6 13 Nordeste 21 Nordeste 0 -- -- 85
2018-05-01 11:00:00 13.5 7 Este 15 Sudeste 0.8 -- -- 92
2018-05-01 10:00:00 12.5 8 Este 22 Nordeste 0 -- -- 91
2018-05-01 09:00:00 12.2 7 Este 26 Nordeste 0 -- -- 96
2018-05-01 08:00:00 11.2 6 Sudeste 22 Este 0.6 -- -- 99
2018-05-01 07:00:00 11.4 12 Norte 41 Noroeste 11.8 -- -- 89
2018-05-01 06:00:00 13.5 5 Sudeste 12 Este 0 -- -- 75
2018-05-01 05:00:00 13.4 4 Sudeste 8 Sur 0 -- -- 73
2018-05-01 04:00:00 13 6 Sur 9 Sur 0 -- -- 73
2018-05-01 03:00:00 13.2 7 Sur 12 Sur 0 -- -- 72
2018-05-01 02:00:00 13.1 8 Sur 18 Sur 0 -- -- 66
2018-05-01 01:00:00 14.4 7 Sur 27 Sur 0 -- -- 61
2018-05-01 00:00:00 14.8 15 Sur 26 Sur 0 -- -- 54
2018-04-30 23:00:00 14.4 6 Sudeste 13 Sudeste 0 -- -- 49
2018-04-30 22:00:00 15.1 4 Sur 17 Sudoeste 0 -- -- 50
2018-04-30 21:00:00 14.7 5 Sur 14 Sur 0 -- -- 51
2018-04-30 20:00:00 15.9 3 Sur 17 Sur 0 -- -- 52
2018-04-30 19:00:00 17.3 3 Noroeste 13 Oeste 0 -- -- 53
2018-04-30 18:00:00 16.6 8 Oeste 15 Oeste 0 -- -- 60
2018-04-30 17:00:00 15.9 5 Noroeste 17 Oeste 0 -- -- 59
2018-04-30 16:00:00 16.2 9 Oeste 17 Oeste 0 -- -- 50
2018-04-30 15:00:00 16.3 10 Oeste 22 Oeste 0 -- -- 54
2018-04-30 14:00:00 16.4 8 Oeste 20 Oeste 0 -- -- 63
2018-04-30 13:00:00 15.8 11 Oeste 27 Oeste 0 -- -- 66
2018-04-30 12:00:00 16 13 Oeste 29 Oeste 0 -- -- 67
2018-04-30 11:00:00 15.5 13 Oeste 27 Oeste 0 -- -- 69
2018-04-30 10:00:00 16 15 Sudoeste 27 Sudoeste 0 -- -- 66
2018-04-30 09:00:00 15.8 13 Sudoeste 26 Oeste 0 -- -- 63
2018-04-30 08:00:00 15.3 11 Sudoeste 25 Sudoeste 0 -- -- 67
2018-04-30 07:00:00 14.7 13 Sudoeste 30 Oeste 0 -- -- 69
2018-04-30 06:00:00 14.9 14 Sudoeste 28 Sudoeste 0 -- -- 67
2018-04-30 05:00:00 15 10 Sudoeste 32 Sudoeste 0 -- -- 66
2018-04-30 04:00:00 15.6 12 Sudoeste 32 Sur 0 -- -- 60
2018-04-30 03:00:00 16.2 13 Sudoeste 37 Oeste 0 -- -- 55
2018-04-30 02:00:00 16.5 15 Sudoeste 35 Oeste 0 -- -- 50
2018-04-30 01:00:00 16.7 14 Sudoeste 52 Sudoeste 0 -- -- 48
2018-04-30 00:00:00 16.9 16 Sudoeste 40 Sudoeste 0 -- -- 48
2018-04-29 23:00:00 17.2 15 Sudoeste 46 Sudoeste 0 -- -- 46
2018-04-29 22:00:00 17.4 14 Sudoeste 56 Oeste 0 -- -- 39
2018-04-29 21:00:00 17.4 21 Sudoeste 58 Sudoeste 0 -- -- 43
2018-04-29 20:00:00 18.1 17 Sudoeste 48 Oeste 0 -- -- 44
2018-04-29 19:00:00 18.7 24 Sudoeste 53 Oeste 0 -- -- 41
2018-04-29 18:00:00 18.7 27 Oeste 51 Oeste 0 -- -- 39
2018-04-29 17:00:00 18.1 21 Oeste 48 Sudoeste 0 -- -- 45
2018-04-29 16:00:00 18 25 Oeste 48 Sudoeste 0 -- -- 44
2018-04-29 15:00:00 17.4 23 Sudoeste 46 Oeste 0 -- -- 47
2018-04-29 14:00:00 17.2 15 Oeste 43 Sudoeste 0 -- -- 54
2018-04-29 13:00:00 16.9 24 Sudoeste 47 Oeste 0 -- -- 55
2018-04-29 12:00:00 16.6 18 Oeste 42 Oeste 0 -- -- 64
2018-04-29 11:00:00 17.7 16 Oeste 64 Sudoeste 0 -- -- 70
2018-04-29 10:00:00 17.5 18 Sur 58 Sur 0 -- -- 62
2018-04-29 09:00:00 20.5 10 Este 39 Oeste 0 -- -- 40
2018-04-29 08:00:00 17.6 8 Nordeste 55 Oeste 0 -- -- 69
2018-04-29 07:00:00 16.6 22 Sur 52 Sudoeste 0.8 -- -- 77
2018-04-29 06:00:00 18.2 17 Sur 54 Sudeste 0 -- -- 64
2018-04-29 05:00:00 18.7 19 Sur 62 Sur 0 -- -- 57
2018-04-29 04:00:00 19.1 32 Sur 68 Sudeste 0 -- -- 54
2018-04-29 03:00:00 19.3 28 Sudeste 65 Sur 0 -- -- 54
2018-04-29 02:00:00 18.7 29 Sudeste 63 Sudeste 0 -- -- 56
2018-04-29 01:00:00 18.2 19 Sur 73 Sudeste 0 -- -- 59
2018-04-29 00:00:00 18.2 28 Sudeste 60 Sudeste 0 -- -- 67
2018-04-28 23:00:00 19.5 29 Sudeste 55 Sur 0 -- -- 57
2018-04-28 22:00:00 22.3 27 Sur 52 Sur 0 -- -- 39
2018-04-28 21:00:00 22.5 24 Sur 41 Sur 0 -- -- 50
2018-04-28 20:00:00 22.1 13 Sur 45 Sudeste 0 -- -- 58
2018-04-28 19:00:00 22.3 19 Sur 41 Sudoeste 0 -- -- 62
2018-04-28 18:00:00 20.1 4 Norte 15 Norte 0 -- -- 81
2018-04-28 17:00:00 19.8 8 Noroeste 13 Norte 0 -- -- 83
2018-04-28 16:00:00 18.9 5 Norte 13 Norte 0 -- -- 87
2018-04-28 15:00:00 18.6 7 Norte 15 Norte 0 -- -- 86
2018-04-28 14:00:00 19.5 6 Noroeste 17 Oeste 0 -- -- 81
2018-04-28 13:00:00 19.2 4 Norte 8 Norte 0 -- -- 79
2018-04-28 12:00:00 19.7 5 Noroeste 9 Noroeste 0 -- -- 69
2018-04-28 11:00:00 19.3 3 Norte 7 Noroeste 0 -- -- 71
2018-04-28 10:00:00 19.3 2 Norte 5 Norte 0 -- -- 75
2018-04-28 09:00:00 18.9 0 Calma 7 Este 0 -- -- 74
2018-04-28 08:00:00 16.6 8 Sudeste 11 Sudeste 0 -- -- 84
2018-04-28 07:00:00 14.8 5 Sudeste 10 Sur 0 -- -- 86
2018-04-28 06:00:00 14.1 5 Sur 9 Sudeste 0 -- -- 89
2018-04-28 05:00:00 15.5 3 Sudeste 15 Oeste 0 -- -- 82
2018-04-28 04:00:00 16.6 4 Sudeste 10 Sur 0 -- -- 59
2018-04-28 03:00:00 16.2 4 Sur 15 Sur 0 -- -- 61
2018-04-28 02:00:00 16 8 Sur 13 Sur 0 -- -- 62
2018-04-28 01:00:00 17.4 4 Sudeste 14 Este 0 -- -- 52
2018-04-28 00:00:00 16.8 5 Sudeste 15 Sur 0 -- -- 54
2018-04-27 23:00:00 16.2 6 Sudeste 12 Sur 0 -- -- 62
2018-04-27 22:00:00 16.5 4 Sur 8 Sur 0 -- -- 63
2018-04-27 21:00:00 17.8 4 Sudoeste 20 Nordeste 0 -- -- 59
2018-04-27 20:00:00 20.3 7 Este 12 Este 0 -- -- 49
2018-04-27 19:00:00 21.9 6 Norte 26 Oeste 0 -- -- 47
2018-04-27 18:00:00 23.2 8 Oeste 26 Sudoeste 0 -- -- 41
2018-04-27 17:00:00 23 6 Norte 33 Sur 0 -- -- 43
2018-04-27 16:00:00 24.3 10 Oeste 34 Oeste 0 -- -- 39
2018-04-27 15:00:00 22.2 16 Oeste 33 Oeste 0 -- -- 44
2018-04-27 14:00:00 21.6 19 Oeste 39 Oeste 0 -- -- 47
2018-04-27 13:00:00 20.8 22 Oeste 34 Oeste 0 -- -- 50
2018-04-27 12:00:00 20.2 17 Oeste 31 Oeste 0 -- -- 53
2018-04-27 11:00:00 19.4 3 Norte 6 Noroeste 0 -- -- 52
2018-04-27 10:00:00 19 0 Calma 6 Sudeste 0 -- -- 52
2018-04-27 09:00:00 19.2 3 Sudeste 9 Sudeste 0 -- -- 55
2018-04-27 08:00:00 15.7 5 Sudeste 12 Sudeste 0 -- -- 60
2018-04-27 07:00:00 14.3 5 Sudeste 12 Oeste 0 -- -- 63
2018-04-27 06:00:00 14.3 5 Sur 11 Sur 0 -- -- 61
2018-04-27 05:00:00 14.6 3 Sur 10 Sur 0 -- -- 59
2018-04-27 04:00:00 13.1 5 Sur 9 Sur 0 -- -- 69
2018-04-27 03:00:00 13.4 8 Sur 10 Sur 0 -- -- 69
2018-04-27 02:00:00 14 3 Sur 9 Sur 0 -- -- 74
2018-04-27 01:00:00 15.4 5 Sur 18 Oeste 0 -- -- 78
2018-04-27 00:00:00 15.4 5 Sur 10 Sur 0 -- -- 77
2018-04-26 23:00:00 15.4 7 Sur 9 Sur 0 -- -- 80
2018-04-26 22:00:00 15.5 3 Este 8 Sudoeste 0 -- -- 81
2018-04-26 21:00:00 15.7 2 Sudoeste 12 Nordeste 0 -- -- 79
2018-04-26 20:00:00 17.3 10 Nordeste 23 Nordeste 0 -- -- 68
2018-04-26 19:00:00 17.7 6 Nordeste 22 Nordeste 0 -- -- 73
2018-04-26 18:00:00 17.5 12 Nordeste 27 Este 0 -- -- 72
2018-04-26 17:00:00 18.1 11 Nordeste 28 Sudeste 0 -- -- 66
2018-04-26 16:00:00 17.4 8 Este 28 Nordeste 0 -- -- 72
2018-04-26 15:00:00 17.4 13 Este 41 Nordeste 0 -- -- 70
2018-04-26 14:00:00 16.9 24 Nordeste 49 Nordeste 0 -- -- 73
2018-04-26 13:00:00 16.6 25 Nordeste 64 Nordeste 0 -- -- 74
2018-04-26 12:00:00 16.9 23 Nordeste 56 Nordeste 0 -- -- 74
2018-04-26 11:00:00 17.2 31 Nordeste 48 Nordeste 0 -- -- 71
2018-04-26 10:00:00 17.7 18 Nordeste 42 Nordeste 0 -- -- 71
2018-04-26 09:00:00 18 10 Nordeste 25 Este 0 -- -- 72
2018-04-26 08:00:00 18.6 5 Este 20 Nordeste 0 -- -- 70
2018-04-26 07:00:00 18.3 4 Nordeste 14 Sudoeste 0 -- -- 68
2018-04-26 06:00:00 17.1 3 Sudeste 10 Nordeste 0 -- -- 78
2018-04-26 05:00:00 17.4 2 Nordeste 8 Sur 0 -- -- 73
2018-04-26 04:00:00 17.3 5 Sudoeste 13 Sur 0 -- -- 78
2018-04-26 03:00:00 16.8 4 Sudeste 9 Sur 0 -- -- 80
2018-04-26 02:00:00 16.8 2 Sur 8 Sur 0 -- -- 86
2018-04-26 01:00:00 17.1 3 Sur 9 Sur 0 -- -- 86
2018-04-26 00:00:00 17.7 4 Sudeste 10 Este 0 -- -- 82
2018-04-25 23:00:00 18.6 3 Oeste 9 Oeste 0 -- -- 78
2018-04-25 22:00:00 19.2 5 Oeste 13 Sudeste 0 -- -- 70
2018-04-25 21:00:00 21.7 10 Sudeste 18 Este 0 -- -- 43
2018-04-25 20:00:00 21.7 9 Este 20 Sudeste 0 -- -- 47
2018-04-25 19:00:00 19.3 5 Sur 12 Sur 0 -- -- 80
2018-04-25 18:00:00 19.6 3 Norte 23 Oeste 0 -- -- 71
2018-04-25 17:00:00 20.5 13 Oeste 31 Sudoeste 0 -- -- 62
2018-04-25 16:00:00 21.9 9 Nordeste 35 Sur 0 -- -- 60
2018-04-25 15:00:00 25.2 10 Este 34 Nordeste 0 -- -- 42
2018-04-25 14:00:00 23.8 14 Este 36 Sudeste 0 -- -- 42
2018-04-25 13:00:00 20.9 10 Nordeste 23 Nordeste 0 -- -- 60
2018-04-25 12:00:00 20.5 7 Norte 21 Nordeste 0 -- -- 56
2018-04-25 11:00:00 19.8 3 Norte 16 Nordeste 0 -- -- 72
2018-04-25 10:00:00 19.9 4 Este 15 Oeste 0 -- -- 66
2018-04-25 09:00:00 21.2 6 Este 21 Este 0 -- -- 51
2018-04-25 08:00:00 18.8 3 Sudeste 14 Sudeste 0 -- -- 55
2018-04-25 07:00:00 20.2 10 Sudeste 16 Sudeste 0 -- -- 44
2018-04-25 06:00:00 19.6 5 Sudeste 14 Sudeste 0 -- -- 45
2018-04-25 05:00:00 19.2 5 Este 11 Este 0 -- -- 44
2018-04-25 04:00:00 18.2 5 Sudeste 9 Sur 0 -- -- 49
2018-04-25 03:00:00 19.8 8 Sudeste 22 Sudeste 0 -- -- 42
2018-04-25 02:00:00 19 5 Sudoeste 14 Sudeste 0 -- -- 46
2018-04-25 01:00:00 18.7 5 Sur 9 Sur 0 -- -- 40
2018-04-25 00:00:00 18.9 5 Sur 16 Sur 0 -- -- 43
2018-04-24 23:00:00 18.3 8 Sur 14 Sur 0 -- -- 46
2018-04-24 22:00:00 20.3 8 Sudoeste 28 Sudeste 0 -- -- 46
2018-04-24 21:00:00 20.8 4 Oeste 18 Nordeste 0 -- -- 47
2018-04-24 20:00:00 22.1 4 Sur 19 Nordeste 0 -- -- 42
2018-04-24 19:00:00 22.6 4 Noroeste 22 Nordeste 0 -- -- 49
2018-04-24 18:00:00 23.8 12 Este 31 Nordeste 0 -- -- 37
2018-04-24 17:00:00 21.1 13 Nordeste 27 Sudeste 0 -- -- 62
2018-04-24 16:00:00 19.9 4 Norte 14 Noroeste 0 -- -- 74
2018-04-24 15:00:00 20.8 4 Norte 19 Norte 0 -- -- 66
2018-04-24 14:00:00 22.5 11 Nordeste 25 Nordeste 0 -- -- 59
2018-04-24 13:00:00 19.5 3 Noroeste 15 Noroeste 0 -- -- 77
2018-04-24 12:00:00 20.5 7 Noroeste 22 Oeste 0 -- -- 64
2018-04-24 11:00:00 20.1 15 Oeste 26 Oeste 0 -- -- 68
2018-04-24 10:00:00 23.8 9 Sudeste 24 Sudeste 0 -- -- 36
2018-04-24 09:00:00 21.8 12 Sudeste 23 Este 0 -- -- 39
2018-04-24 08:00:00 19.9 6 Sudeste 13 Sudeste 0 -- -- 44
2018-04-24 07:00:00 19.7 6 Este 23 Sudeste 0 -- -- 45
2018-04-24 06:00:00 20.9 13 Sudeste 24 Sudeste 0 -- -- 40
2018-04-24 05:00:00 20.8 8 Sudeste 28 Sudeste 0 -- -- 40
2018-04-24 04:00:00 20.5 12 Sudeste 24 Este 0 -- -- 40
2018-04-24 03:00:00 20.5 11 Este 20 Nordeste 0 -- -- 41
2018-04-24 02:00:00 20.3 7 Sudeste 14 Sudeste 0 -- -- 41
2018-04-24 01:00:00 17.5 2 Sur 11 Sudoeste 0 -- -- 65
2018-04-24 00:00:00 16.9 5 Sudoeste 12 Sur 0 -- -- 76
2018-04-23 23:00:00 17.9 3 Sudoeste 12 Sur 0 -- -- 82
2018-04-23 22:00:00 19.8 6 Sur 13 Sur 0 -- -- 59
2018-04-23 21:00:00 19.2 5 Este 12 Sudeste 0 -- -- 56
2018-04-23 20:00:00 19.8 2 Sudeste 10 Noroeste 0 -- -- 76
2018-04-23 19:00:00 21.4 3 Noroeste 14 Oeste 0 -- -- 61
2018-04-23 18:00:00 21.1 9 Oeste 17 Oeste 0 -- -- 59
2018-04-23 17:00:00 19.9 8 Oeste 12 Oeste 0 -- -- 82
2018-04-23 16:00:00 21.1 3 Noroeste 9 Norte 0 -- -- 78
2018-04-23 15:00:00 20.2 4 Oeste 12 Norte 0 -- -- 90
2018-04-23 14:00:00 19.4 5 Norte 9 Noroeste 0 -- -- 92
2018-04-23 13:00:00 19.3 5 Norte 10 Norte 0 -- -- 90
2018-04-23 12:00:00 19.6 6 Noroeste 18 Oeste 0 -- -- 84
2018-04-23 11:00:00 19.6 2 Norte 7 Norte 0 -- -- 79
2018-04-23 10:00:00 19.3 4 Sudoeste 12 Nordeste 0 -- -- 77
2018-04-23 09:00:00 19.6 5 Este 21 Nordeste 0 -- -- 63
2018-04-23 08:00:00 19.8 8 Este 22 Nordeste 0 -- -- 46
2018-04-23 07:00:00 19.7 13 Nordeste 21 Este 0 -- -- 50
2018-04-23 06:00:00 16.8 5 Sudeste 11 Sudeste 0 -- -- 76
2018-04-23 05:00:00 15.9 3 Este 6 Sudeste 0 -- -- 82
2018-04-23 04:00:00 16.3 0 Calma 7 Oeste 0 -- -- 79
2018-04-23 03:00:00 16.6 4 Sur 15 Este 0 -- -- 63
2018-04-23 02:00:00 18.3 5 Sudeste 21 Este 0 -- -- 52
2018-04-23 01:00:00 18.5 6 Nordeste 19 Nordeste 0 -- -- 58
2018-04-23 00:00:00 15.8 5 Sudoeste 12 Sur 0 -- -- 72
2018-04-22 23:00:00 16.2 4 Sur 12 Sudeste 0 -- -- 78
2018-04-22 22:00:00 17.1 4 Sudeste 10 Sudoeste 0 -- -- 81
2018-04-22 21:00:00 17.9 7 Sudoeste 13 Sur 0 -- -- 75
2018-04-22 20:00:00 18.1 3 Sudoeste 9 Noroeste 0 -- -- 86
2018-04-22 19:00:00 19.6 3 Noroeste 7 Norte 0 -- -- 82
2018-04-22 18:00:00 19.7 4 Norte 9 Norte 0 -- -- 80
2018-04-22 17:00:00 19.6 4 Norte 8 Norte 0 -- -- 79
2018-04-22 16:00:00 19.9 5 Norte 12 Norte 0 -- -- 81
2018-04-22 15:00:00 18.9 10 Norte 18 Norte 0 -- -- 81
2018-04-22 14:00:00 19.4 5 Norte 11 Norte 0 -- -- 82
2018-04-22 13:00:00 18.6 6 Norte 10 Norte 0 -- -- 78
2018-04-22 12:00:00 18.6 3 Norte 8 Norte 0 -- -- 70
2018-04-22 11:00:00 19.1 3 Norte 5 Noroeste 0 -- -- 69
2018-04-22 10:00:00 19.2 0 Calma 4 Oeste 0 -- -- 65
2018-04-22 09:00:00 17.8 2 Oeste 12 Sudoeste 0 -- -- 76
2018-04-22 08:00:00 14.5 8 Sur 13 Sur 0 -- -- 79
2018-04-22 07:00:00 14.3 7 Sur 11 Sudeste 0 -- -- 77
2018-04-22 06:00:00 14.5 3 Sur 8 Sur 0 -- -- 78
2018-04-22 05:00:00 15.1 3 Sur 10 Sur 0 -- -- 71
2018-04-22 04:00:00 15.5 8 Sur 14 Sur 0 -- -- 70
2018-04-22 03:00:00 15.3 6 Sur 14 Sur 0 -- -- 76
2018-04-22 02:00:00 14.6 7 Sur 10 Sur 0 -- -- 80
2018-04-22 01:00:00 14.7 4 Sur 9 Sur 0 -- -- 82
2018-04-22 00:00:00 15 5 Sur 9 Sur 0 -- -- 83